When you browse on this site, cookies collect data to enhance your experience and personalize the content and advertising you see.
Visit our Privacy Policy to learn more. By continuing to use the site, you agree to this use of cookies and data.
  • In Netherlands
  • List of Countries
  • For 7 days
  • Water Temperature
  • Satellite Maps
  • Weather Map
  • Weather Widgets
  • user-avatar
    Login

    Hourly Weather Yulara

    Today, 27 June, Thursday

    Time Temperature Precipitation Wind Pressure Humidity
    00:00 +8°C° 0 mm 4 mps 721 mmHg 40%
    01:00 +8°C° 0 mm 3 mps 721 mmHg 41%
    02:00 +8°C° 0 mm 3 mps 721 mmHg 42%
    03:00 +6°C° 0 mm 2 mps 721 mmHg 43%
    04:00 +6°C° 0 mm 2 mps 721 mmHg 43%
    05:00 +6°C° 0 mm 2 mps 721 mmHg 44%
    06:00 +6°C° 0 mm 2 mps 722 mmHg 44%
    07:00 +7°C° 0 mm 2 mps 722 mmHg 40%
    08:00 +9°C° 0 mm 2 mps 722 mmHg 36%
    09:00 +13°C° 0 mm 2 mps 722 mmHg 31%
    10:00 +14°C° 0 mm 3 mps 722 mmHg 28%
    11:00 +17°C° 0 mm 3 mps 722 mmHg 25%
    12:00 +19°C° 0 mm 3 mps 721 mmHg 21%
    13:00 +20°C° 0 mm 3 mps 721 mmHg 20%
    14:00 +21°C° 0 mm 2 mps 720 mmHg 18%
    15:00 +23°C° 0 mm 2 mps 720 mmHg 17%
    16:00 +19°C° 0 mm 2 mps 720 mmHg 22%
    17:00 +18°C° 0 mm 1 mps 719 mmHg 27%
    18:00 +14°C° 0 mm 1 mps 719 mmHg 31%
    19:00 +14°C° 0 mm 1 mps 719 mmHg 30%
    20:00 +14°C° 0 mm 2 mps 720 mmHg 29%
    21:00 +13°C° 0 mm 3 mps 720 mmHg 28%
    22:00 +12°C° 0 mm 3 mps 720 mmHg 30%
    23:00 +12°C° 0 mm 3 mps 720 mmHg 31%

    Tomorrow, 28 June, Friday

    Time Temperature Precipitation Wind Pressure Humidity
    00:00 +11°C° 0 mm 3 mps 720 mmHg 32%
    01:00 +10°C° 0 mm 3 mps 719 mmHg 33%
    02:00 +10°C° 0 mm 2 mps 719 mmHg 34%
    03:00 +9°C° 0 mm 2 mps 719 mmHg 35%
    04:00 +9°C° 0 mm 2 mps 719 mmHg 37%
    05:00 +9°C° 0 mm 2 mps 719 mmHg 38%
    06:00 +9°C° 0 mm 2 mps 719 mmHg 39%
    07:00 +11°C° 0 mm 3 mps 720 mmHg 35%
    08:00 +13°C° 0 mm 3 mps 720 mmHg 31%
    09:00 +16°C° 0 mm 3 mps 720 mmHg 27%
    10:00 +18°C° 0 mm 4 mps 720 mmHg 24%
    11:00 +20°C° 0 mm 4 mps 720 mmHg 21%
    12:00 +23°C° 0 mm 5 mps 720 mmHg 18%
    13:00 +24°C° 0 mm 6 mps 720 mmHg 17%
    14:00 +26°C° 0 mm 6 mps 719 mmHg 16%
    15:00 +27°C° 0 mm 6 mps 719 mmHg 15%
    16:00 +25°C° 0 mm 5 mps 719 mmHg 18%
    17:00 +22°C° 0 mm 5 mps 719 mmHg 20%
    18:00 +20°C° 0 mm 4 mps 719 mmHg 22%
    19:00 +19°C° 0 mm 4 mps 719 mmHg 24%
    20:00 +18°C° 0 mm 4 mps 720 mmHg 26%
    21:00 +17°C° 0 mm 4 mps 720 mmHg 27%
    22:00 +14°C° 0 mm 5 mps 720 mmHg 43%
    23:00 +12°C° 0 mm 7 mps 721 mmHg 58%

    Day after tomorrow, 29 June, Saturday

    Time Temperature Precipitation Wind Pressure Humidity
    00:00 +11°C° 0 mm 8 mps 721 mmHg 73%
    01:00 +10°C° 0 mm 7 mps 721 mmHg 73%
    02:00 +10°C° 0 mm 6 mps 721 mmHg 72%
    03:00 +9°C° 0 mm 5 mps 721 mmHg 71%
    04:00 +8°C° 0 mm 4 mps 722 mmHg 72%
    05:00 +7°C° 0 mm 4 mps 722 mmHg 73%
    06:00 +7°C° 0 mm 3 mps 722 mmHg 73%
    07:00 +7°C° 0 mm 4 mps 723 mmHg 64%
    08:00 +8°C° 0 mm 5 mps 723 mmHg 56%
    09:00 +9°C° 0 mm 6 mps 723 mmHg 47%
    10:00 +11°C° 0 mm 6 mps 724 mmHg 38%
    11:00 +14°C° 0 mm 6 mps 724 mmHg 29%
    12:00 +15°C° 0 mm 6 mps 724 mmHg 21%
    13:00 +16°C° 0 mm 6 mps 723 mmHg 18%
    14:00 +17°C° 0 mm 6 mps 723 mmHg 16%
    15:00 +19°C° 0 mm 6 mps 722 mmHg 13%
    16:00 +16°C° 0 mm 5 mps 722 mmHg 16%
    17:00 +14°C° 0 mm 5 mps 722 mmHg 20%
    18:00 +12°C° 0 mm 4 mps 722 mmHg 23%
    19:00 +11°C° 0 mm 4 mps 723 mmHg 24%
    20:00 +10°C° 0 mm 4 mps 723 mmHg 26%
    21:00 +8°C° 0 mm 4 mps 723 mmHg 27%
    22:00 +7°C° 0 mm 4 mps 723 mmHg 29%
    23:00 +6°C° 0 mm 4 mps 723 mmHg 31%

    30 June, Sunday

    Time Temperature Precipitation Wind Pressure Humidity
    00:00 +6°C° 0 mm 4 mps 723 mmHg 33%
    01:00 +5°C° 0 mm 4 mps 723 mmHg 36%
    02:00 +4°C° 0 mm 3 mps 723 mmHg 39%
    03:00 +4°C° 0 mm 3 mps 723 mmHg 43%
    04:00 +3°C° 0 mm 3 mps 723 mmHg 46%
    05:00 +3°C° 0 mm 4 mps 724 mmHg 49%
    06:00 +3°C° 0 mm 4 mps 724 mmHg 53%
    07:00 +4°C° 0 mm 4 mps 724 mmHg 49%
    08:00 +6°C° 0 mm 5 mps 724 mmHg 46%
    09:00 +7°C° 0 mm 5 mps 724 mmHg 42%
    10:00 +10°C° 0 mm 5 mps 724 mmHg 36%
    11:00 +13°C° 0 mm 5 mps 723 mmHg 30%
    12:00 +15°C° 0 mm 5 mps 723 mmHg 24%
    13:00 +16°C° 0 mm 5 mps 722 mmHg 22%
    14:00 +18°C° 0 mm 4 mps 721 mmHg 20%
    15:00 +19°C° 0 mm 4 mps 721 mmHg 17%
    16:00 +17°C° 0 mm 3 mps 721 mmHg 20%
    17:00 +14°C° 0 mm 3 mps 721 mmHg 23%
    18:00 +12°C° 0 mm 3 mps 721 mmHg 26%
    19:00 +11°C° 0 mm 3 mps 721 mmHg 29%
    20:00 +10°C° 0 mm 3 mps 721 mmHg 31%
    21:00 +9°C° 0 mm 3 mps 721 mmHg 33%
    22:00 +9°C° 0 mm 3 mps 721 mmHg 36%
    23:00 +8°C° 0 mm 3 mps 721 mmHg 39%

    1 July, Monday

    Time Temperature Precipitation Wind Pressure Humidity
    00:00 +7°C° 0 mm 3 mps 721 mmHg 42%
    01:00 +7°C° 0 mm 3 mps 721 mmHg 46%
    02:00 +5°C° 0 mm 3 mps 721 mmHg 49%
    03:00 +4°C° 0 mm 3 mps 721 mmHg 52%
    04:00 +4°C° 0 mm 3 mps 721 mmHg 53%
    05:00 +4°C° 0 mm 3 mps 721 mmHg 55%
    06:00 +4°C° 0 mm 3 mps 721 mmHg 56%
    07:00 +7°C° 0 mm 3 mps 722 mmHg 51%
    08:00 +9°C° 0 mm 2 mps 722 mmHg 46%
    09:00 +10°C° 0 mm 2 mps 722 mmHg 42%
    10:00 +14°C° 0 mm 2 mps 722 mmHg 36%
    11:00 +17°C° 0 mm 2 mps 721 mmHg 31%
    12:00 +19°C° 0 mm 2 mps 721 mmHg 25%
    13:00 +20°C° 0 mm 3 mps 720 mmHg 24%
    14:00 +22°C° 0 mm 3 mps 720 mmHg 22%
    15:00 +23°C° 0 mm 4 mps 719 mmHg 21%
    16:00 +20°C° 0 mm 3 mps 719 mmHg 30%
    17:00 +17°C° 0 mm 2 mps 719 mmHg 40%
    18:00 +14°C° 0 mm 1 mps 719 mmHg 49%
    19:00 +13°C° 0 mm 1 mps 719 mmHg 53%
    20:00 +12°C° 0 mm 1 mps 719 mmHg 56%
    21:00 +12°C° 0 mm 1 mps 720 mmHg 60%
    22:00 +12°C° 0 mm 1 mps 720 mmHg 55%
    23:00 +12°C° 0 mm 2 mps 720 mmHg 49%

    2 July, Tuesday

    Time Temperature Precipitation Wind Pressure Humidity
    00:00 +11°C° 0 mm 3 mps 720 mmHg 43%
    01:00 +11°C° 0 mm 3 mps 719 mmHg 42%
    02:00 +10°C° 0 mm 3 mps 719 mmHg 40%
    03:00 +10°C° 0 mm 3 mps 719 mmHg 38%
    04:00 +10°C° 0 mm 3 mps 719 mmHg 39%
    05:00 +9°C° 0 mm 3 mps 720 mmHg 40%
    06:00 +9°C° 0 mm 3 mps 720 mmHg 41%
    07:00 +10°C° 0 mm 3 mps 720 mmHg 37%
    08:00 +12°C° 0 mm 3 mps 721 mmHg 33%
    09:00 +14°C° 0 mm 3 mps 722 mmHg 28%
    10:00 +17°C° 0 mm 4 mps 721 mmHg 26%
    11:00 +19°C° 0 mm 4 mps 721 mmHg 23%
    12:00 +21°C° 0 mm 4 mps 721 mmHg 21%
    13:00 +21°C° 0 mm 4 mps 721 mmHg 20%
    14:00 +22°C° 0 mm 3 mps 720 mmHg 19%
    15:00 +22°C° 0 mm 3 mps 720 mmHg 19%
    16:00 +20°C° 0 mm 3 mps 720 mmHg 21%
    17:00 +18°C° 0 mm 3 mps 720 mmHg 24%
    18:00 +16°C° 0 mm 3 mps 720 mmHg 27%
    19:00 +14°C° 0 mm 4 mps 721 mmHg 27%
    20:00 +13°C° 0 mm 4 mps 721 mmHg 28%
    21:00 +12°C° 0 mm 5 mps 722 mmHg 29%
    22:00 +10°C° 0 mm 5 mps 722 mmHg 29%
    23:00 +9°C° 0 mm 5 mps 722 mmHg 29%
    Show more